Altoona, PA

5:40 PM EST on November 11, 2019 (GMT -0500)
Altoona-Blair County

Weather History for KAOO - September, 2019

Change the Weather History Date:

Monday, September 2, 2019

  Actual Average Record
Temperature  
Mean Temperature 71 °F 66 °F  
Max Temperature 79 °F 77 °F 96 °F (1953)
Min Temperature 62 °F 56 °F 40 °F (1949)
Degree Days  
Heating Degree Days 0 2  
Month to date heating degree days 0 4  
Since 1 July heating degree days 9 36  
Cooling Degree Days 6 3  
Month to date cooling degree days 7 6  
Year to date cooling degree days 652 485  
Growing Degree Days 21 (Base 50)    
Moisture  
Dew Point 63 °F    
Average Humidity 77    
Maximum Humidity 93    
Minimum Humidity 60    
Precipitation  
Precipitation 0.55 in 0.11 in 2.35 in (2006)
Month to date precipitation 0.55 0.22  
Year to date precipitation 30.24 24.15  
Sea Level Pressure  
Sea Level Pressure 30.08 in    
Wind  
Wind Speed 6 mph (SW)    
Max Wind Speed 17 mph    
Max Gust Speed 24 mph    
Visibility 9 miles    
Events Rain , Thunderstorm    
T = Trace of Precipitation, MM = Missing Value Source: NWS Daily Summary

Daily Weather History Graph

Daily Weather History Graph

Search for Another Location

Airport or City:

Astronomy

Sep. 02, 2019 Rise Set
Actual Time 6:41 AM EDT 7:43 PM EDT
Civil Twilight 6:13 AM EDT 8:11 PM EDT
Nautical Twilight 5:40 AM EDT 8:44 PM EDT
Astronomical Twilight 5:05 AM EDT 9:19 PM EDT
Moon 10:22 AM EDT (9/2) 10:03 PM EDT (9/2)
Length of Visible Light 13h 58m
Length of Day
13h 02m
Waxing Crescent, 15% of the Moon is Illuminated
Sep 2
Waxing Crescent
Sep 5
First Quarter
Sep 14
Full
Sep 21
Last Quarter
Sep 28
New

Hourly Weather History & Observations

Time (EDT) Temp. Dew Point Humidity Pressure Visibility Wind Dir Wind Speed Gust Speed Precip Events Conditions
12:53 AM 69.1 °F 64.0 °F 84% 30.13 in 10.0 mi South 8.1 mph 17.3 mph N/A   Mostly Cloudy
1:12 AM 70.0 °F 64.0 °F 81% 30.13 in 10.0 mi South 10.4 mph - N/A   Mostly Cloudy
1:24 AM 70.0 °F 64.0 °F 81% 30.13 in 10.0 mi South 8.1 mph 18.4 mph N/A   Mostly Cloudy
1:33 AM 70.0 °F 64.0 °F 81% 30.13 in 10.0 mi South 10.4 mph 16.1 mph N/A   Mostly Cloudy
1:53 AM 70.0 °F 64.0 °F 81% 30.09 in 10.0 mi South 15.0 mph 24.2 mph N/A   Mostly Cloudy
2:04 AM 70.0 °F 64.0 °F 81% 30.11 in 10.0 mi South 10.4 mph 20.7 mph N/A   Mostly Cloudy
2:18 AM 70.0 °F 64.0 °F 81% 30.11 in 10.0 mi South 11.5 mph 20.7 mph N/A   Scattered Clouds
2:25 AM 70.0 °F 64.0 °F 81% 30.11 in 10.0 mi South 9.2 mph 19.6 mph N/A   Mostly Cloudy
2:38 AM 70.0 °F 64.0 °F 81% 30.11 in 10.0 mi South 15.0 mph 21.9 mph N/A   Mostly Cloudy
2:53 AM 70.0 °F 64.0 °F 81% 30.09 in 10.0 mi SSW 15.0 mph 21.9 mph 0.00 in Rain Light Rain
3:07 AM 69.1 °F 64.9 °F 87% 30.13 in 2.0 mi WSW 11.5 mph 23.0 mph 0.12 in Rain Heavy Rain
3:10 AM 68.0 °F 64.9 °F 90% 30.13 in 1.5 mi WSW 12.7 mph - 0.13 in Rain Heavy Rain
3:12 AM 68.0 °F 64.9 °F 90% 30.13 in 1.5 mi WSW 11.5 mph - 0.15 in Rain Heavy Rain
3:17 AM 66.9 °F 63.0 °F 87% 30.13 in 2.0 mi WSW 11.5 mph - 0.19 in Rain , Thunderstorm Heavy Rain
3:21 AM 66.0 °F 61.0 °F 84% 30.13 in 1.8 mi WSW 11.5 mph - 0.24 in Rain , Thunderstorm Heavy Rain
3:37 AM 64.0 °F 62.1 °F 93% 30.12 in 2.0 mi South 6.9 mph - 0.39 in Rain , Thunderstorm Thunderstorms and Rain
3:46 AM 64.0 °F 61.0 °F 90% 30.11 in 6.0 mi SSW 6.9 mph - 0.40 in Rain , Thunderstorm Light Thunderstorms and Rain
3:53 AM 64.0 °F 61.0 °F 90% 30.09 in 8.0 mi South 5.8 mph - 0.41 in Rain , Thunderstorm Light Rain
4:02 AM 64.0 °F 61.0 °F 90% 30.10 in 7.0 mi SSE 5.8 mph - 0.01 in Rain Light Rain
4:11 AM 63.0 °F 61.0 °F 93% 30.10 in 7.0 mi South 5.8 mph - 0.03 in Rain , Thunderstorm Rain
4:39 AM 64.0 °F 61.0 °F 90% 30.11 in 10.0 mi Calm Calm - 0.05 in Rain Light Rain
4:53 AM 64.0 °F 62.1 °F 93% 30.09 in 3.0 mi Calm Calm - 0.09 in Rain Rain
5:53 AM 64.0 °F 62.1 °F 93% 30.07 in 10.0 mi Calm Calm - 0.03 in Rain Light Rain
6:53 AM 64.0 °F 62.1 °F 93% 30.07 in 9.0 mi SW 6.9 mph - 0.02 in   Overcast
7:53 AM 66.9 °F 63.0 °F 87% 30.07 in 9.0 mi WSW 6.9 mph - N/A   Scattered Clouds
8:53 AM 69.1 °F 64.0 °F 84% 30.06 in 10.0 mi SW 6.9 mph - N/A   Clear
9:53 AM 70.0 °F 64.0 °F 81% 30.06 in 10.0 mi SSW 6.9 mph - N/A   Overcast
10:13 AM 71.1 °F 64.9 °F 81% 30.08 in 10.0 mi SSW 8.1 mph - N/A   Overcast
10:53 AM 73.0 °F 64.9 °F 76% 30.06 in 10.0 mi SSW 5.8 mph - N/A   Overcast
11:20 AM 73.9 °F 64.9 °F 73% 30.08 in 10.0 mi WSW 5.8 mph - N/A   Mostly Cloudy
11:27 AM 73.9 °F 66.0 °F 76% 30.07 in 10.0 mi WSW 5.8 mph - N/A   Mostly Cloudy
11:39 AM 75.0 °F 64.9 °F 71% 30.07 in 10.0 mi Variable 6.9 mph - N/A   Overcast
11:46 AM 75.0 °F 64.9 °F 71% 30.07 in 10.0 mi West 9.2 mph - N/A   Overcast
11:53 AM 73.9 °F 64.9 °F 73% 30.05 in 10.0 mi WSW 9.2 mph - N/A   Overcast
12:40 PM 75.0 °F 66.0 °F 73% 30.07 in 10.0 mi West 4.6 mph - N/A   Mostly Cloudy
12:53 PM 75.9 °F 66.0 °F 71% 30.04 in 10.0 mi NW 6.9 mph - N/A   Mostly Cloudy
1:15 PM 77.0 °F 66.0 °F 69% 30.06 in 10.0 mi NW 8.1 mph - N/A   Mostly Cloudy
1:53 PM 77.0 °F 64.9 °F 66% 30.03 in 10.0 mi WNW 5.8 mph - N/A   Overcast
2:53 PM 79.0 °F 64.9 °F 62% 30.00 in 10.0 mi NW 10.4 mph - N/A   Partly Cloudy
3:53 PM 77.0 °F 63.0 °F 62% 30.00 in 10.0 mi NW 10.4 mph - N/A   Scattered Clouds
4:53 PM 75.9 °F 63.0 °F 64% 30.00 in 10.0 mi WNW 10.4 mph - N/A   Mostly Cloudy
5:53 PM 75.9 °F 60.1 °F 58% 30.01 in 10.0 mi WNW 11.5 mph - N/A   Mostly Cloudy
6:53 PM 75.0 °F 60.1 °F 60% 30.01 in 10.0 mi NNW 9.2 mph - N/A   Partly Cloudy
7:53 PM 71.1 °F 61.0 °F 70% 30.03 in 10.0 mi NNW 4.6 mph - N/A   Clear
8:53 PM 66.9 °F 62.1 °F 84% 30.05 in 10.0 mi Calm Calm - N/A   Clear
9:42 PM 68.0 °F 62.1 °F 81% 30.08 in 10.0 mi Calm Calm - N/A   Mostly Cloudy
9:53 PM 68.0 °F 62.1 °F 81% 30.06 in 10.0 mi Calm Calm - N/A   Mostly Cloudy
10:11 PM 66.0 °F 62.1 °F 87% 30.08 in 10.0 mi Calm Calm - N/A   Scattered Clouds
10:53 PM 66.0 °F 62.1 °F 87% 30.08 in 10.0 mi Calm Calm - N/A   Mostly Cloudy
11:53 PM 64.0 °F 61.0 °F 90% 30.09 in 10.0 mi Calm Calm - N/A   Clear